Lid_Strength_Index
6 3 1 1 1 1 1 1 1 1 1 1 1 1 2 2 2 2 2 2 2 2
7 6 5 3 1 1 1 1 1 1 1 1 1 2 2 2 2 2 2 2 2 2
7 6 5 4 3 2 1 1 1 1 1 1 1 1 1 2 1 2 2 2 2 2
8 7 6 5 3 3 1 1 1 1 1 1 1 1 1 1 1 2 2 2 2 2
8 8 7 7 4 3 3 2 1 1 1 2 2 1 1 2 2 2 2 2 2 2
9 8 8 7 6 5 4 2 2 2 2 2 2 1 1 1 2 2 2 2 2 2
10 10 10 9 8 7 6 4 2 3 3 2 2 2 2 2 2 2 2 2 2 2
10 11 11 11 10 10 9 7 6 4 4 4 4 3 6 3 2 2 2 3 2 2
12 12 12 11 11 11 10 9 8 8 7 7 5 7 8 9 7 6 5 4 4 4
14 15 14 13 12 11 10 9 9 9 8 8 8 8 8 9 8 7 5 6 7 9
17 17 16 15 13 12 11 10 9 9 8 9 9 8 8 9 9 8 8 8 8 9
18 18 18 17 15 13 11 11 10 9 10 10 10 9 9 9 11 11 11 11 11 10
19 18 18 17 16 13 11 11 11 10 10 11 12 10 9 10 12 12 13 13 12 13
19 19 19 18 15 14 12 11 11 11 11 11 12 11 10 9 11 12 12 13 13 13